[[[{"header":{"parameterUnit":"kt","parameterCategory":2,"dx":1,"dy":1,"la1":30.253999710083008,"la2":30.299108505249023,"lo1":-89.0895004272461,"lo2":-89.04439544677734,"nx":28,"ny":28,"refTime":"2022-10-01T21:00:00:Z","depth":0,"parameterNumber":1,"parameterNumberName":"U-component_of_WINDS"},"data":[1.091,1.091,1.091,1.0911,1.0911,1.0912,1.0912,1.0913,1.0913,1.0914,1.0915,1.0916,1.0917,1.0918,1.092,1.092,1.092,1.0921,1.0921,1.0918,1.0917,1.0917,1.0916,1.0921,1.0921,1.0925,1.0925,1.0925,1.0911,1.0911,1.0911,1.0911,1.0911,1.0911,1.0911,1.0911,1.0912,1.0912,1.0912,1.0913,1.0914,1.0915,1.0916,1.0917,1.0917,1.0917,1.0917,1.0917,1.0913,1.0913,1.0917,1.0917,1.0917,1.0917,1.0917,1.0917,1.0912,1.0912,1.0911,1.0911,1.0911,1.0911,1.0911,1.091,1.091,1.091,1.091,1.0911,1.0911,1.0911,1.0912,1.0913,1.0912,1.0912,1.0912,1.0912,1.0913,1.0909,1.0913,1.0913,1.0913,1.0913,1.0913,0,1.0913,1.0913,1.0912,1.0911,1.0911,1.091,1.091,1.091,1.0908,1.0908,1.0908,1.0908,1.0909,1.0909,1.0909,1.0909,1.0908,1.0907,1.0908,1.0908,1.0909,1.0909,1.0903,1.0907,1.0907,1.0907,1.0907,1.0907,1.0914,1.0913,1.0912,1.0911,1.091,1.091,1.0909,1.0908,1.0907,1.0907,1.0906,1.0906,1.0906,1.0906,1.0905,1.0905,1.0904,1.0906,1.0904,1.0905,1.0905,1.0905,1.0905,1.0906,1.0906,1.0906,1.0906,0,1.0915,1.0913,1.0912,1.091,1.0909,1.0909,1.0907,1.0907,1.0906,1.0905,1.0905,1.0904,1.0903,1.0902,1.0901,1.09,1.0901,1.0901,1.0902,1.0902,1.0903,1.0903,1.0908,1.0909,1.0903,1.0904,1.0904,0,1.0915,1.0914,1.0912,1.0911,1.091,1.0908,1.0907,1.0905,1.0904,1.0904,1.0902,1.0901,1.0899,1.0899,1.0898,1.0898,1.0898,1.0897,1.0897,1.0897,1.0897,1.0896,1.0896,1.0895,1.0895,1.0895,1.0895,0,1.0917,1.0913,1.0911,1.091,1.0907,1.0907,1.0905,1.0903,1.0902,1.0901,1.0901,1.0899,1.0898,1.0898,1.0896,1.0895,1.0896,1.0894,1.0895,1.0895,1.0895,1.0895,1.09,1.0895,1.0895,1.0895,1.0895,0,1.0916,1.0914,1.0911,1.0909,1.0908,1.0906,1.0904,1.0903,1.0901,1.09,1.0898,1.0896,1.0895,1.0894,1.0893,1.0892,1.0892,1.0891,1.0891,1.089,1.0888,1.0892,1.0897,1.0897,1.0891,1.0891,1.0891,0,1.0919,1.0915,1.0912,1.0909,1.0907,1.0905,1.0904,1.0901,1.0899,1.0898,1.0896,1.0893,1.0892,1.089,1.0891,1.0888,1.0889,1.0888,1.0887,1.0886,1.0887,1.0892,1.0893,1.0896,1.0891,1.0891,1.0891,0,1.092,1.0915,1.0914,1.0913,1.0908,1.0906,1.0904,1.0901,1.09,1.0897,1.0895,1.0892,1.0891,1.0888,1.0886,1.0886,1.0889,1.0884,1.0884,1.0885,1.089,1.0891,1.0892,1.0887,1.0887,1.0887,1.0891,0,1.092,1.0917,1.0916,1.0911,1.0908,1.0906,1.0902,1.09,1.0898,1.0896,1.0893,1.0889,1.0885,1.0885,1.0882,1.0882,1.0882,1.088,1.0877,1.088,1.0881,1.0882,1.0876,1.0876,1.0876,1.0876,0,0,1.0923,1.0918,1.0914,1.0911,1.0909,1.0905,1.0903,1.09,1.0894,1.0893,1.0892,1.0885,1.0882,1.0879,1.088,1.0878,1.0878,1.0876,1.0879,1.0879,1.0879,1.0881,1.0881,1.0876,1.0876,1.0876,1.0876,0,1.0922,1.0918,1.0915,1.0912,1.0907,1.0904,1.0903,1.0898,1.0895,1.0892,1.0888,1.0886,1.088,1.0877,1.0875,1.0877,1.0874,1.0876,1.0878,1.0878,1.0879,1.0879,1.088,1.0881,1.0876,1.0876,1.0876,0,1.0922,1.0918,1.0916,1.0909,1.0906,1.0903,1.0899,1.0896,1.0894,1.0888,1.0885,1.0882,1.0877,1.0874,1.0873,1.0871,1.087,1.0869,1.0869,1.0869,1.0869,1.0869,1.087,1.0864,1.0863,1.0863,0,0,1.0922,1.0918,1.0912,1.0908,1.0907,1.0901,1.0899,1.0895,1.0891,1.0889,1.0884,1.088,1.0877,1.0874,1.0871,1.0868,1.0867,1.0868,1.0868,1.0869,1.0869,1.0869,1.0869,1.0863,1.0863,1.0863,0,0,1.0921,1.0914,1.0912,1.0907,1.0903,1.0896,1.0894,1.0892,1.0888,1.0887,1.0882,1.088,1.0877,1.0874,1.0873,1.087,1.0867,1.0867,1.0872,1.0872,1.0873,1.0873,1.0868,0,0,0,0,0,1.0918,1.0915,1.0913,1.0912,1.0902,1.0897,1.0896,1.0891,1.089,1.0889,1.0885,1.0881,1.0873,1.0872,1.0871,1.0871,1.0862,1.0862,1.0863,1.0868,1.0869,1.0869,0,0,0,0,0,0,1.0917,1.0915,1.0913,1.0907,1.0904,1.0897,1.0894,1.0893,1.089,1.0889,1.0882,1.0881,1.0877,1.0873,1.0871,1.0872,1.0869,1.0862,1.0863,1.0863,1.0868,1.0869,1.0869,0,0,0,0,0,1.0916,1.0915,1.0901,1.0906,1.0905,1.0898,1.0894,1.0893,1.0891,1.0884,1.0882,1.0887,1.0877,1.0876,1.0872,1.0872,1.087,1.0869,1.0862,1.0863,1.0863,1.0868,0,0,0,0,0,0,1.0916,1.0914,1.09,1.09,1.0907,1.0898,1.0896,1.0893,1.0885,1.0884,1.0888,1.0888,1.0877,1.0876,1.0875,1.0873,1.087,1.087,1.087,1.0863,1.0863,1.0863,0,0,0,0,0,0,1.0914,1.0913,1.09,1.09,1.09,1.0898,1.0897,1.0893,1.0885,1.089,1.089,1.0888,1.0878,1.0876,1.0875,1.0869,1.0871,1.087,1.087,1.087,1.0863,1.0863,0,0,0,0,0,0,1.0914,1.0913,1.09,1.09,1.0899,1.0891,1.0894,1.0885,1.0886,1.0891,1.0885,1.0885,1.0879,1.0878,1.0876,1.0869,1.0869,1.0871,1.087,1.087,1.087,0,0,0,0,0,0,0,1.0913,1.0922,1.0905,1.09,1.0899,1.0893,1.0893,1.0892,1.0885,1.0885,1.0885,1.0885,1.0873,1.0873,1.0872,1.087,0,0,1.0871,1.0871,0,0,0,0,0,0,0,0,1.0923,1.0923,1.0905,1.0904,1.0904,1.0893,1.0893,1.0892,1.0885,1.0885,1.0885,1.0885,1.0873,1.0873,1.0872,0,0,0,0,0,0,0,0,0,0,0,0,0,0,0,1.0905,1.0904,0,1.0893,1.0893,1.0892,1.0885,1.0885,1.0885,1.0885,1.0873,1.0873,1.0872,0,0,0,0,0,0,0,0,0,0,0,0,0,0,0,0,0,0,0,0,0,0,0,0,0,0,0,0,0,0,0,0,0,0,0,0,0,0,0,0,0,0,0,0,0,0,0,0,0,0,0,0,0,0,0,0,0,0,0,0,0,0,0,0,0,0,0,0,0]}],[{"header":{"parameterUnit":"kt","parameterCategory":2,"dx":1,"dy":1,"la1":30.253999710083008,"la2":30.299108505249023,"lo1":-89.0895004272461,"lo2":-89.04439544677734,"nx":28,"ny":28,"refTime":"2022-10-01T21:00:00:Z","depth":0,"parameterNumber":2,"parameterNumberName":"V-component_of_WINDS"},"data":[-10.3286,-10.3488,-10.3504,-10.3739,-10.3791,-10.3952,-10.4014,-10.4093,-10.4159,-10.4349,-10.4459,-10.4488,-10.4554,-10.4684,-10.4799,-10.4808,-10.4855,-10.4919,-10.4918,-10.4628,-10.4589,-10.4551,-10.4505,-10.493,-10.4931,-10.5215,-10.5218,-10.522,-10.3076,-10.3132,-10.3261,-10.3395,-10.3505,-10.3454,-10.3553,-10.3646,-10.379,-10.3871,-10.398,-10.4146,-10.4275,-10.4319,-10.4443,-10.4533,-10.4512,-10.4565,-10.4557,-10.4567,-10.4259,-10.4211,-10.458,-10.458,-10.458,-10.458,-10.458,-10.458,-10.2698,-10.2819,-10.2908,-10.3047,-10.3118,-10.3206,-10.3321,-10.3356,-10.3478,-10.3615,-10.3602,-10.3762,-10.3841,-10.3994,-10.4046,-10.4168,-10.4108,-10.4168,-10.4182,-10.4197,-10.4213,-10.3799,-10.4189,-10.4188,-10.4187,-10.4186,-10.4185,0,-10.2423,-10.2428,-10.2551,-10.268,-10.2782,-10.288,-10.2972,-10.3043,-10.3046,-10.3146,-10.3291,-10.3374,-10.3538,-10.3671,-10.3788,-10.3829,-10.3777,-10.3773,-10.3813,-10.3821,-10.3815,-10.3819,-10.3315,-10.376,-10.3756,-10.3753,-10.3751,-10.375,-10.204,-10.2179,-10.2277,-10.2362,-10.2415,-10.2552,-10.2634,-10.2627,-10.2714,-10.2821,-10.2924,-10.3059,-10.3166,-10.339,-10.342,-10.3539,-10.3514,-10.3683,-10.3531,-10.3535,-10.3514,-10.3506,-10.3518,-10.3712,-10.3716,-10.372,-10.3724,0,-10.1823,-10.1843,-10.206,-10.2141,-10.2166,-10.231,-10.2376,-10.2493,-10.2511,-10.2673,-10.271,-10.2737,-10.2875,-10.2879,-10.3035,-10.3032,-10.3262,-10.3236,-10.3236,-10.323,-10.338,-10.3366,-10.3871,-10.3936,-10.3497,-10.3502,-10.3505,0,-10.1502,-10.1683,-10.1701,-10.1826,-10.2026,-10.2014,-10.2211,-10.2246,-10.2315,-10.2442,-10.2387,-10.2507,-10.2491,-10.2611,-10.2606,-10.2795,-10.2824,-10.2831,-10.2827,-10.2836,-10.2835,-10.2876,-10.2854,-10.2815,-10.2812,-10.281,-10.2808,0,-10.1158,-10.1378,-10.1582,-10.1635,-10.1736,-10.1831,-10.1876,-10.1951,-10.203,-10.2132,-10.2183,-10.2301,-10.2365,-10.2456,-10.2449,-10.2346,-10.268,-10.2536,-10.2687,-10.2687,-10.2758,-10.2753,-10.3203,-10.2805,-10.2804,-10.2803,-10.2802,0,-10.0898,-10.1009,-10.1302,-10.1384,-10.1441,-10.1574,-10.1692,-10.1807,-10.1889,-10.1896,-10.1975,-10.1936,-10.2102,-10.1959,-10.2187,-10.2055,-10.212,-10.2142,-10.2153,-10.2165,-10.2004,-10.2255,-10.2686,-10.273,-10.2181,-10.2175,-10.2171,0,-10.0499,-10.0799,-10.0791,-10.1067,-10.1206,-10.1135,-10.1281,-10.1356,-10.1378,-10.1494,-10.1515,-10.1646,-10.1541,-10.1581,-10.1694,-10.1719,-10.1891,-10.1696,-10.1857,-10.1863,-10.1837,-10.2235,-10.2297,-10.2593,-10.2105,-10.2112,-10.2117,0,-10.019,-10.0313,-10.0363,-10.0422,-10.0522,-10.0636,-10.0804,-10.0934,-10.1012,-10.1102,-10.124,-10.1424,-10.1352,-10.1419,-10.1398,-10.1515,-10.1774,-10.1419,-10.1421,-10.1482,-10.2071,-10.213,-10.218,-10.1733,-10.1741,-10.1748,-10.2064,0,-9.9793,-9.9944,-10.0081,-10.0211,-10.03,-10.0472,-10.0478,-10.057,-10.0543,-10.056,-10.0763,-10.0821,-10.0947,-10.1003,-10.0976,-10.1244,-10.1198,-10.1118,-10.0975,-10.1237,-10.1341,-10.1383,-10.0821,-10.0816,-10.0813,-10.081,0,0,-9.9404,-9.9621,-9.9604,-9.9768,-9.9842,-9.9763,-9.9947,-10.0008,-10.0133,-10.0184,-10.0106,-10.0374,-10.0424,-10.0668,-10.075,-10.0801,-10.0848,-10.0755,-10.1113,-10.1147,-10.1178,-10.1289,-10.1334,-10.0804,-10.0802,-10.0801,-10.08,0,-9.926,-9.9321,-9.9505,-9.9569,-9.9663,-9.9673,-9.9718,-9.9794,-9.9813,-10.0012,-9.9939,-10.006,-10.0274,-10.0336,-10.0395,-10.0728,-10.0663,-10.0766,-10.0944,-10.1077,-10.1116,-10.115,-10.1267,-10.131,-10.0791,-10.0792,-10.0792,0,-9.8955,-9.9015,-9.9105,-9.927,-9.933,-9.9472,-9.9327,-9.9482,-9.9586,-9.9485,-9.9683,-9.9714,-9.9796,-10.0027,-10.013,-10.006,-10.0495,-10.0357,-10.0379,-10.0389,-10.0518,-10.0564,-10.0605,-10.0061,-10.0059,-10.0057,0,0,-9.8828,-9.8969,-9.9027,-9.9239,-9.9282,-9.9298,-9.9373,-9.9353,-9.9432,-9.9463,-9.9502,-9.9578,-9.9701,-9.9782,-9.9898,-10.0151,-10.0164,-10.0267,-10.0302,-10.033,-10.0355,-10.0491,-10.0537,-10.0047,-10.0047,-10.0046,0,0,-9.8766,-9.8844,-9.8803,-9.9051,-9.9131,-9.9198,-9.9325,-9.9275,-9.938,-9.936,-9.9328,-9.9347,-9.9562,-9.9594,-9.9467,-9.9846,-9.9705,-9.9735,-9.9816,-9.986,-9.9894,-9.988,-9.932,0,0,0,0,0,-9.862,-9.8835,-9.8798,-9.884,-9.9045,-9.922,-9.9245,-9.9227,-9.9129,-9.9231,-9.9255,-9.9181,-9.9519,-9.9406,-9.9446,-9.9587,-9.9924,-9.9946,-9.9966,-10.013,-10.0176,-10.0214,0,0,0,0,0,0,-9.8637,-9.8689,-9.8792,-9.8869,-9.8915,-9.9212,-9.9042,-9.9042,-9.9118,-9.9101,-9.9179,-9.9183,-9.9167,-9.9384,-9.942,-9.9555,-9.9308,-9.9932,-9.9951,-9.9968,-10.0146,-10.0183,-10.0215,0,0,0,0,0,-9.865,-9.8691,-9.9026,-9.8865,-9.8905,-9.8933,-9.9033,-9.9033,-9.909,-9.9127,-9.9129,-9.9069,-9.9172,-9.92,-9.9405,-9.9539,-9.9283,-9.9296,-9.9944,-9.9959,-9.9972,-10.0164,0,0,0,0,0,0,-9.8659,-9.869,-9.9034,-9.9045,-9.8783,-9.8915,-9.8936,-9.9025,-9.911,-9.9115,-9.9014,-9.9,-9.9178,-9.9199,-9.9221,-9.9535,-9.9262,-9.9276,-9.9285,-9.9956,-9.9967,-9.9977,0,0,0,0,0,0,-9.8667,-9.87,-9.9039,-9.8937,-9.8936,-9.89,-9.8918,-9.9087,-9.9112,-9.8992,-9.8983,-9.9007,-9.9142,-9.9199,-9.9216,-9.9481,-9.9247,-9.926,-9.9269,-9.9275,-9.9965,-9.9974,0,0,0,0,0,0,-9.8681,-9.8709,-9.8933,-9.8933,-9.8932,-9.9056,-9.9048,-9.9258,-9.9029,-9.8989,-9.9007,-9.8998,-9.9144,-9.916,-9.9213,-9.9472,-9.9479,-9.9247,-9.9256,-9.9262,-9.9267,0,0,0,0,0,0,0,-9.8692,-9.8509,-9.8968,-9.893,-9.8929,-9.9149,-9.9152,-9.9155,-9.9027,-9.9018,-9.901,-9.9002,-9.9172,-9.9186,-9.9201,-9.9464,0,0,-9.9246,-9.9252,0,0,0,0,0,0,0,0,-9.8496,-9.8506,-9.8968,-9.8971,-9.8973,-9.915,-9.9152,-9.9154,-9.9025,-9.9018,-9.9012,-9.9005,-9.9175,-9.9187,-9.9199,0,0,0,0,0,0,0,0,0,0,0,0,0,0,0,-9.8968,-9.897,0,-9.915,-9.9152,-9.9154,-9.9024,-9.9019,-9.9013,-9.9008,-9.9179,-9.9188,-9.9198,0,0,0,0,0,0,0,0,0,0,0,0,0,0,0,0,0,0,0,0,0,0,0,0,0,0,0,0,0,0,0,0,0,0,0,0,0,0,0,0,0,0,0,0,0,0,0,0,0,0,0,0,0,0,0,0,0,0,0,0,0,0,0,0,0,0,0,0,0]}]]]